Location: Newark
(48.4472°N, 1.4892°E)
Time: 14:13:34
(UTC+00:00)

Transit 4A - Pass Details

Date: 21 January 2021
Orbit: 866 x 978 km, 66.8° (Epoch: 01 March)

Event Time Altitude Azimuth Distance (km) Brightness Sun altitude
Rises 18:57:17 0° 188° (S) 3,657 11.2 -23.1°
Reaches altitude 10° 18:59:57 10° 182° (S) 2,719 10.4 -23.5°
Enters shadow 19:04:57 40° 135° (SE) 1,409 8.5 -24.4°
